Date,TemperatureHighF,TemperatureAvgF,TemperatureLowF,DewpointHighF,DewpointAvgF,DewpointLowF,HumidityHigh,HumidityAvg,HumidityLow,PressureMaxIn,PressureMinIn,WindSpeedMaxMPH,WindSpeedAvgMPH,GustSpeedMaxMPH,PrecipitationSumIn
2013-3-1,36.0,26.5,19.0,28.0,24.2,18.0,100,91,69,30.22,30.07,16,5,24,0.00
2013-3-2,55.0,39.9,25.0,37.0,32.8,25.0,100,78,50,30.07,29.84,20,8,24,0.00
2013-3-3,48.0,39.4,32.0,46.0,37.0,30.0,100,91,66,29.84,29.52,16,6,22,0.00
2013-3-4,34.0,24.0,14.0,34.0,21.0,10.0,100,89,79,30.09,29.60,38,23,47,0.00
2013-3-5,23.0,14.8,9.0,18.0,11.4,7.0,92,86,78,30.28,30.08,27,11,31,0.00
2013-3-6,28.0,17.8,9.0,23.0,15.3,7.0,100,90,73,30.20,29.83,20,13,30,0.00
2013-3-7,39.0,28.6,19.0,32.0,25.3,18.0,100,87,69,30.08,29.80,21,-93,30,0.00
2013-3-8,39.0,30.6,25.0,32.0,28.5,25.0,100,92,74,30.08,29.85,15,-142,20,0.00
2013-3-9,34.0,27.5,18.0,30.0,25.4,16.0,100,92,74,30.07,29.79,23,13,33,0.00
2013-3-10,36.0,22.7,12.0,18.0,13.9,9.0,92,71,37,30.16,29.90,15,8,22,0.00
2013-3-11,41.0,30.4,19.0,30.0,20.1,16.0,92,67,40,29.99,29.75,32,19,40,0.00
2013-3-12,30.0,23.1,18.0,18.0,8.7,3.0,85,55,31,30.19,29.99,31,-40,39,0.00
2013-3-13,63.0,40.2,16.0,34.0,21.0,9.0,73,50,24,30.14,29.93,16,9,24,0.00
2013-3-14,70.0,51.1,36.0,39.0,34.5,30.0,86,58,26,30.05,29.93,17,10,23,0.00
2013-3-15,43.0,27.8,19.0,36.0,25.5,18.0,100,91,64,30.01,29.79,16,8,22,0.00
2013-3-16,25.0,19.4,16.0,21.0,15.4,12.0,92,85,68,30.06,29.91,16,7,24,0.00
2013-3-17,34.0,21.2,10.0,34.0,19.2,5.0,100,92,78,29.94,29.37,35,21,45,0.00
2013-3-18,21.0,10.8,3.0,12.0,3.9,-2.0,85,72,66,29.88,29.62,35,16,43,0.00
2013-3-19,23.0,16.1,3.0,18.0,9.9,0.0,85,76,57,30.26,29.86,24,10,30,0.00
2013-3-20,37.0,18.5,1.0,18.0,7.8,-2.0,85,65,29,30.26,29.86,21,10,30,0.00
2013-3-21,30.0,19.0,10.0,18.0,9.7,1.0,92,66,50,29.86,29.75,20,14,27,0.00
2013-3-22,27.0,20.9,16.0,25.0,17.9,12.0,92,88,79,30.00,29.81,16,6,21,0.00
2013-3-23,25.0,16.8,10.0,14.0,10.5,7.0,85,76,62,30.12,30.00,24,14,31,0.00
2013-3-24,25.0,15.2,9.0,18.0,9.9,3.0,92,79,62,30.20,30.06,20,13,25,0.00
2013-3-25,30.0,17.8,9.0,16.0,11.7,5.0,92,77,54,30.24,30.14,12,6,16,0.00
2013-3-26,39.0,23.9,12.0,25.0,16.7,9.0,92,75,51,30.14,30.00,16,9,23,0.00
2013-3-27,52.0,30.3,12.0,27.0,20.0,10.0,100,71,29,30.06,30.01,12,3,0,0.00
2013-3-28,61.0,40.3,21.0,32.0,27.1,19.0,100,65,26,30.06,30.00,10,4,0,0.00
2013-3-29,66.0,41.9,21.0,39.0,31.5,19.0,100,72,25,30.05,29.89,18,5,25,0.00
2013-3-30,57.0,42.7,32.0,39.0,31.7,-99.9,100,72,30,30.02,29.93,22,10,38,0.00
2013-3-31,34.0,28.3,21.0,30.0,23.6,14.0,92,82,63,30.15,29.96,18,9,24,0.00